DW1086 Weather Reports


time (UTC)temp
F
wind
direction
speed
knots
gust
knots
rain 1hr
in
rain 24hr
in
rain mn
in
humidity
%
barometer
mb
20260504175104 72 221 7.0 13.0 0.00 0.00 0.00 40 1009.9
20260504174603 72 240 5.2 11.3 0.00 0.00 0.00 37 1009.9
20260504174103 71 226 5.2 11.3 0.00 0.00 0.00 39 1009.9
20260504173603 71 217 7.0 15.6 0.00 0.00 0.00 39 1009.9
20260504173103 72 222 4.3 13.0 0.00 0.00 0.00 40 1009.9
20260504172604 71 224 5.2 14.8 0.00 0.00 0.00 39 1009.9
20260504172103 71 228 6.1 13.9 0.00 0.00 0.00 41 1010.1
20260504171103 71 218 4.3 13.9 0.00 0.00 0.00 40 1010.1
20260504170604 72 226 8.7 13.9 0.00 0.00 0.00 37 1010.2
20260504170104 71 219 4.3 15.6 0.00 0.00 0.00 40 1010.3
20260504151104 69 270 5.2 14.8 0.00 0.00 0.00 36 1011.8
20260504150603 69 231 6.1 17.4 0.00 0.00 0.00 35 1011.8
20260504150103 68 234 6.1 14.8 0.00 0.00 0.00 37 1011.9
20260504141103 66 240 5.2 12.2 0.00 0.00 0.00 37 1012.2
20260504140603 66 240 6.1 14.8 0.00 0.00 0.00 37 1012.2
20260504140103 66 233 5.2 14.8 0.00 0.00 0.00 39 1012.3
20260504130604 62 243 5.2 13.0 0.00 0.00 0.00 46 1012.8
20260504130104 61 230 4.3 12.2 0.00 0.00 0.00 46 1012.8
20260504110603 51 239 3.5 10.4 0.00 0.00 0.00 57 1012.9
20260504110104 50 229 4.3 10.4 0.00 0.00 0.00 57 1012.9
20260504100604 48 236 2.6 11.3 0.00 0.00 0.00 60 1012.5
20260504100103 48 227 3.5 8.7 0.00 0.00 0.00 60 1012.6
20260504081603 50 217 1.7 5.2 0.00 0.00 0.00 54 1011.9
20260504081104 50 225 2.6 5.2 0.00 0.00 0.00 54 1011.9
20260504080604 50 207 1.7 7.0 0.00 0.00 0.00 54 1011.9
20260504080104 50 224 2.6 4.3 0.00 0.00 0.00 54 1011.9
20260504070103 49 220 2.6 6.1 0.00 0.00 0.00 55 1011.6
20260504050603 48 225 3.5 6.1 0.00 0.00 0.00 57 1011.4
20260504050103 48 223 2.6 5.2 0.00 0.00 0.00 57 1011.4
20260504045604 48 221 2.6 5.2 0.00 0.00 0.00 57 1011.4
20260504044603 47 228 2.6 6.1 0.00 0.00 0.00 57 1011.3
20260504044103 47 220 1.7 4.3 0.00 0.00 0.00 57 1011.3
20260504043603 47 227 2.6 5.2 0.00 0.00 0.00 57 1011.2
20260504043104 47 224 1.7 5.2 0.00 0.00 0.00 56 1011.2
20260504042103 46 217 0.9 4.3 0.00 0.00 0.00 57 1011.2
20260504041603 46 222 2.6 4.3 0.00 0.00 0.00 57 1011.2
20260504041105 46 227 1.7 5.2 0.00 0.00 0.00 57 1011.2
20260504040603 46 219 2.6 5.2 0.00 0.00 0.00 58 1011.2
20260504040103 46 222 1.7 4.3 0.00 0.00 0.00 58 1011.2
20260504035603 46 213 0.9 2.6 0.00 0.00 0.00 57 1011.1
20260504035104 46 213 1.7 2.6 0.00 0.00 0.00 57 1011.1
20260504034604 46 230 0.9 2.6 0.00 0.00 0.00 57 1011.1
20260504034103 46 235 0.9 2.6 0.00 0.00 0.00 58 1011.1
20260504033603 46 218 0.9 2.6 0.00 0.00 0.00 58 1011.1
20260504033104 46 216 0.9 2.6 0.00 0.00 0.00 58 1011.1
20260504032603 46 216 0.9 1.7 0.00 0.00 0.00 57 1011.1
20260504032103 46 216 0.9 1.7 0.00 0.00 0.00 56 1011.1
20260504031604 46 216 0.0 0.0 0.00 0.00 0.00 57 1011.1
20260504031104 46 216 0.0 1.7 0.00 0.00 0.00 58 1011.1
20260504030603 46 216 1.7 4.3 0.00 0.00 0.00 59 1011.1
20260504030104 46 214 0.9 1.7 0.00 0.00 0.00 59 1011.1
20260504025103 46 214 1.7 2.6 0.00 0.00 0.00 59 1011.0
20260504024603 46 214 1.7 2.6 0.00 0.00 0.00 59 1011.0
20260504024104 46 214 1.7 2.6 0.00 0.00 0.00 58 1010.9
20260504023604 47 214 0.9 2.6 0.00 0.00 0.00 58 1010.9
20260504023103 47 214 0.9 2.6 0.00 0.00 0.00 58 1010.9
20260504022604 47 214 0.9 2.6 0.00 0.00 0.00 58 1010.9
20260504022104 47 214 0.0 1.7 0.00 0.00 0.00 59 1010.9
20260504021103 47 214 0.0 0.0 0.00 0.00 0.00 58 1010.9
20260504020603 47 214 0.0 0.0 0.00 0.00 0.00 58 1010.8
20260504020103 47 214 0.0 0.0 0.00 0.00 0.00 58 1010.8
20260504015604 48 214 0.0 0.0 0.00 0.00 0.00 58 1010.8
20260504015104 48 214 0.0 0.0 0.00 0.00 0.00 58 1010.8
20260504014103 48 214 0.0 0.0 0.00 0.00 0.00 58 1010.8
20260504013603 48 214 0.0 0.0 0.00 0.00 0.00 57 1010.8
20260504013103 48 214 0.9 1.7 0.00 0.00 0.00 57 1010.5
20260504012603 48 214 0.9 1.7 0.00 0.00 0.00 57 1010.5
20260504012103 49 214 0.9 1.7 0.00 0.00 0.00 56 1010.5
20260504011604 49 214 0.0 0.9 0.00 0.00 0.00 55 1010.5
20260504011104 49 214 0.0 0.9 0.00 0.00 0.00 54 1010.5
20260504010603 50 214 0.0 1.7 0.00 0.00 0.00 53 1010.4
20260504005603 50 214 0.9 1.7 0.00 0.00 0.00 54 1010.4
20260504005104 50 214 0.0 0.0 0.00 0.00 0.00 55 1010.4
20260504004604 51 214 0.0 1.7 0.00 0.00 0.00 55 1010.2
20260504004104 51 214 0.9 1.7 0.00 0.00 0.00 54 1010.2
20260504003603 52 214 0.0 0.9 0.00 0.00 0.00 52 1010.2
20260504003103 52 214 0.0 0.9 0.00 0.00 0.00 52 1010.1
20260504002603 52 214 0.0 0.0 0.00 0.00 0.00 52 1009.9
20260504002103 53 214 0.0 1.7 0.00 0.00 0.00 51 1009.9
20260504001604 53 214 0.0 1.7 0.00 0.00 0.00 50 1009.6
20260504001104 54 214 0.9 2.6 0.00 0.00 0.00 49 1009.6
20260503235603 55 222 1.7 2.6 0.00 0.00 0.00 42 1009.6
20260503235104 55 223 0.9 2.6 0.00 0.00 0.00 40 1009.6
20260503234103 56 249 0.9 6.1 0.00 0.00 0.00 39 1009.5
20260503233603 56 292 0.9 2.6 0.00 0.00 0.00 39 1009.5
20260503233103 56 258 1.7 2.6 0.00 0.00 0.00 38 1009.4
20260503232604 56 287 1.7 6.1 0.00 0.00 0.00 37 1009.2
20260503232104 57 275 2.6 6.1 0.00 0.00 0.00 35 1009.2
20260503231603 57 269 2.6 7.0 0.00 0.00 0.00 35 1009.2
20260503231103 57 270 2.6 8.7 0.00 0.00 0.00 35 1009.1
20260503230603 57 310 1.7 7.0 0.00 0.00 0.00 35 1009.1
20260503230103 58 294 2.6 7.0 0.00 0.00 0.00 35 1009.1
20260503225603 58 282 5.2 10.4 0.00 0.00 0.00 33 1009.0
20260503225104 58 282 4.3 10.4 0.00 0.00 0.00 33 1009.0
20260503224603 58 289 3.5 10.4 0.00 0.00 0.00 34 1009.0
20260503224103 58 300 3.5 12.2 0.00 0.00 0.00 33 1009.0
20260503223603 58 311 2.6 7.8 0.00 0.00 0.00 35 1009.0
20260503223104 58 294 3.5 10.4 0.00 0.00 0.00 33 1009.0
20260503222604 58 300 7.0 13.0 0.00 0.00 0.00 32 1009.0
20260503222103 58 296 7.8 15.6 0.00 0.00 0.00 32 1009.0
20260503221103 58 289 4.3 13.0 0.00 0.00 0.00 34 1008.9
20260503220604 58 302 4.3 13.9 0.00 0.00 0.00 34 1008.9
20260503220103 58 306 4.3 10.4 0.00 0.00 0.00 36 1008.9
20260503214604 59 279 8.7 14.8 0.00 0.00 0.00 31 1008.9
20260503214103 59 285 6.1 13.0 0.00 0.00 0.00 32 1008.9
20260503213103 59 305 7.0 13.0 0.00 0.00 0.00 35 1008.8
20260503212604 59 291 1.7 8.7 0.00 0.00 0.00 36 1008.8
20260503212104 59 283 4.3 10.4 0.00 0.00 0.00 37 1008.8
20260503211604 59 288 4.3 10.4 0.00 0.00 0.00 34 1008.8
20260503211103 59 290 5.2 10.4 0.00 0.00 0.00 35 1008.7
20260503210603 59 263 3.5 13.0 0.00 0.00 0.00 35 1008.7
20260503210103 59 305 7.0 13.9 0.00 0.00 0.00 34 1008.7
20260503205603 59 307 7.0 14.8 0.00 0.00 0.00 34 1008.7
20260503205104 59 285 2.6 10.4 0.00 0.00 0.00 37 1008.7
20260503204603 59 305 7.8 17.4 0.00 0.00 0.00 33 1008.7
20260503204103 59 325 6.1 12.2 0.00 0.00 0.00 36 1008.6
20260503203604 59 312 6.1 12.2 0.00 0.00 0.00 37 1008.6
20260503203104 59 289 7.0 14.8 0.00 0.00 0.00 36 1008.8
20260503202604 59 285 3.5 13.0 0.00 0.00 0.00 37 1008.8
20260503202103 59 300 4.3 11.3 0.00 0.00 0.00 38 1008.8
20260503201603 59 322 5.2 10.4 0.00 0.00 0.00 37 1008.8
20260503201104 59 296 6.1 11.3 0.00 0.00 0.00 36 1008.8
20260503200604 59 332 5.2 13.0 0.00 0.00 0.00 38 1008.9
20260503200104 59 321 3.5 10.4 0.00 0.00 0.00 41 1008.9
20260503195603 59 308 4.3 7.8 0.00 0.00 0.00 43 1009.0
20260503195104 58 334 4.3 10.4 0.00 0.00 0.00 40 1009.0
20260503194604 58 342 4.3 11.3 0.00 0.00 0.00 41 1009.1
20260503194104 58 347 4.3 10.4 0.00 0.00 0.00 41 1009.1
20260503193603 60 324 2.6 10.4 0.00 0.00 0.00 39 1009.1
20260503192603 59 294 2.6 10.4 0.00 0.00 0.00 40 1009.1
20260503192104 58 313 7.8 15.6 0.00 0.00 0.00 36 1009.2
20260503191603 59 297 5.2 14.8 0.00 0.00 0.00 39 1009.1
20260503191103 58 265 2.6 12.2 0.00 0.00 0.00 41 1009.1
20260503185603 58 333 4.3 13.9 0.00 0.00 0.00 39 1009.3
20260503185104 58 323 4.3 12.2 0.00 0.00 0.00 42 1009.4
20260503184604 57 301 6.1 12.2 0.00 0.00 0.00 40 1009.4
20260503184103 58 320 4.3 11.3 0.00 0.00 0.00 40 1009.4
20260503183603 57 298 5.2 17.4 0.00 0.00 0.00 39 1009.4
20260503183103 58 305 5.2 13.0 0.00 0.00 0.00 41 1009.4
20260503182604 58 309 5.2 13.0 0.00 0.00 0.00 38 1009.4
20260503182104 57 297 6.1 17.4 0.00 0.00 0.00 42 1009.1
20260503181603 57 302 7.0 12.2 0.00 0.00 0.00 38 1009.1
20260503181103 58 291 4.3 17.4 0.00 0.00 0.00 42 1009.1
20260503180603 58 314 6.1 12.2 0.00 0.00 0.00 40 1009.1
20260503180103 59 315 6.1 11.3 0.00 0.00 0.00 36 1009.1
20260503175604 59 305 3.5 10.4 0.00 0.00 0.00 43 1009.1